Location: Jackson
(42.2460°N, 84.4010°W)
Time: 14:23:42
(UTC-05:00)

Vanguard 2 - Visible Passes

Search period start: 08 February 2026 00:00
Search period end: 18 February 2026 00:00
Orbit: 553 x 2897 km, 32.9° (Epoch: 8 February)

Date Brightness Start Highest point End Pass type
(mag) Time Alt. Az. Time Alt. Az. Time Alt. Az.
14 Feb 9.8 06:52:45 10° S 06:54:16 11° SSE 06:55:43 10° SE visible
15 Feb 9.6 07:03:26 10° SSW 07:06:06 15° SSE 07:08:30 10° SE visible
17 Feb 10.0 05:20:11 10° S 05:22:22 12° SSE 05:24:18 10° SE visible
